User: anonymous   Login
Location: PACMO
(41.3967°N, 90.3760°W)
Time: 20:23:00
(UTC-05:00)
Language:

BREEZE-M DEB (TANK) - Orbit

View from above orbital plane
View from above orbital plane
View from above satellite
View from above satellite

Ground track
Ground track

The orbit data is extracted from the following two-line orbital elements,

1 31863U 07032B   17112.82684542 +.00000135 +00000-0 +13534-3 0  9992
2 31863 045.9708 020.8430 4980044 323.6670 011.1096 05.52100878196470
Epoch (UTC): 22 April 2017 19:50:39
Eccentricity: 0.4980044
inclination: 45.9708°
perigee height: 410 km
apogee height: 13878 km
right ascension of ascending node: 20.8430°
argument of perigee: 323.6670°
revolutions per day: 5.52100878
mean anomaly at epoch: 11.1096°
orbit number at epoch: 19647

The dashed part of the orbit path shows where the satellite is in the earth's shadow,  

DLR